TimeCDT,TemperatureF,Dew PointF,Humidity,Sea Level PressureIn,VisibilityMPH,Wind Direction,Wind SpeedMPH,Gust SpeedMPH,PrecipitationIn,Events,Conditions,WindDirDegrees,DateUTC
12:53 AM,82.0,62.1,51,29.79,10.0,SE,15.0,-,N/A,,Clear,140,2013-06-19 05:53:00
1:53 AM,80.1,63.0,56,29.79,10.0,SE,11.5,-,N/A,,Clear,140,2013-06-19 06:53:00
2:53 AM,78.1,63.0,60,29.77,10.0,SE,9.2,-,N/A,,Clear,130,2013-06-19 07:53:00
3:53 AM,75.9,63.0,64,29.77,10.0,SE,8.1,-,N/A,,Clear,130,2013-06-19 08:53:00
4:53 AM,73.9,64.9,73,29.77,10.0,SE,9.2,-,N/A,,Clear,130,2013-06-19 09:53:00
5:53 AM,73.0,66.9,81,29.77,10.0,SE,11.5,-,N/A,,Clear,130,2013-06-19 10:53:00
6:53 AM,73.0,68.0,84,29.77,10.0,SE,12.7,-,N/A,,Clear,130,2013-06-19 11:53:00
7:53 AM,73.9,68.0,82,29.78,10.0,SE,15.0,19.6,N/A,,Clear,140,2013-06-19 12:53:00
8:53 AM,77.0,66.9,71,29.79,10.0,SE,16.1,24.2,N/A,,Clear,140,2013-06-19 13:53:00
9:53 AM,81.0,66.0,60,29.78,10.0,SE,16.1,-,N/A,,Clear,130,2013-06-19 14:53:00
10:53 AM,84.9,64.9,51,29.78,10.0,SSE,11.5,-,N/A,,Clear,160,2013-06-19 15:53:00
11:53 AM,89.1,64.0,43,29.78,10.0,SSE,12.7,-,N/A,,Clear,160,2013-06-19 16:53:00
12:53 PM,91.9,62.1,37,29.76,10.0,South,8.1,16.1,N/A,,Clear,180,2013-06-19 17:53:00
1:53 PM,95.0,62.1,33,29.74,10.0,SSE,10.4,19.6,N/A,,Clear,150,2013-06-19 18:53:00
2:53 PM,100.0,57.0,24,29.70,10.0,SE,15.0,-,N/A,,Clear,140,2013-06-19 19:53:00
3:53 PM,97.0,57.9,27,29.68,10.0,SE,15.0,-,N/A,,Clear,140,2013-06-19 20:53:00
4:53 PM,96.1,60.1,30,29.68,10.0,SE,16.1,-,N/A,,Clear,130,2013-06-19 21:53:00
5:53 PM,95.0,54.0,25,29.68,10.0,SE,13.8,24.2,N/A,,Clear,130,2013-06-19 22:53:00
6:53 PM,93.0,57.9,31,29.68,10.0,ESE,13.8,23.0,N/A,,Scattered Clouds,120,2013-06-19 23:53:00
7:53 PM,91.0,59.0,34,29.72,10.0,SSE,11.5,-,0.00,Rain,Light Rain,150,2013-06-20 00:53:00
8:31 PM,84.2,57.2,40,29.92,10.0,SSW,19.6,26.5,0.00,Thunderstorm,Scattered Clouds,210,2013-06-20 01:31:00
8:48 PM,82.4,57.2,42,29.92,10.0,SSW,18.4,31.1,0.00,Rain,Light Rain,200,2013-06-20 01:48:00
8:53 PM,80.1,60.1,50,29.78,10.0,SSW,19.6,31.1,0.00,Rain,Light Rain,200,2013-06-20 01:53:00
9:03 PM,80.6,60.8,51,29.90,10.0,SSE,16.1,-,0.00,Rain-Thunderstorm,Light Rain,160,2013-06-20 02:03:00
9:18 PM,82.4,62.6,51,29.90,10.0,SE,21.9,26.5,0.00,,Partly Cloudy,140,2013-06-20 02:18:00
9:53 PM,82.9,62.1,49,29.77,10.0,SE,24.2,36.8,0.00,,Clear,140,2013-06-20 02:53:00
10:53 PM,80.1,57.9,47,29.77,10.0,South,15.0,21.9,N/A,,Clear,170,2013-06-20 03:53:00
11:53 PM,81.0,63.0,54,29.78,10.0,SSE,23.0,34.5,N/A,,Clear,150,2013-06-20 04:53:00